Hourly Data Report for October 18, 2014

All times are specified in Local Standard Time (LST). Add 1 hour to adjust for Daylight Saving Time where and when it is observed.

SAINT JOHN A
NEW BRUNSWICK

45°18'58.000" N
65°53'24.000" W
108.80 m
8104901
71609
YSJ

Download Data

Hourly Data (October 2014)
Hourly Data Report for October 18, 2014
Temp Definition
°C
Dew Point Temp Definition
°C
Rel Hum Definition
%
Wind Dir Definition
10's deg

Wind Spd Definition
km/h
Visibility Definition
km
Stn Press Definition
kPa
Hmdx Definition


Wind Chill Definition


Weather Definition


TIME
00:00 Legend Double Dagger 13.7 13.7 100 20 20 4.8 99.32     Fog
01:00 Legend Double Dagger 13.7 13.7 100 21 15 4.8 99.30     Fog
02:00 Legend Double Dagger 13.5 13.5 100 20 17 4.8 99.28     Fog
03:00 Legend Double Dagger 13.3 13.3 100 19 18 3.2 99.26     Fog
04:00 Legend Double Dagger 13.4 13.4 100 18 16 3.2 99.24     Fog
05:00 Legend Double Dagger 13.5 13.5 100 19 19 4.8 99.22     Fog
06:00 Legend Double Dagger 13.2 13.2 100 19 17 0.8 99.24     Fog
07:00 Legend Double Dagger 13.5 13.5 100 17 17 4.8 99.22     Fog
08:00 Legend Double Dagger 13.7 13.7 100 18 17 9.7 99.24     Fog
09:00 Legend Double Dagger 14.2 13.9 98 18 18 8.1 99.20     Fog
10:00 Legend Double Dagger 14.7 13.8 94 18 19 9.7 99.19     Fog
11:00 Legend Double Dagger 14.9 13.6 92 18 24 11.3 99.13     Cloudy
12:00 Legend Double Dagger 15.6 13.3 86 19 26 16.1 99.08     LegendNANA
13:00 Legend Double Dagger 16.5 13.8 84 20 25 24.1 99.03     LegendNANA
14:00 Legend Double Dagger 16.3 14.3 88 21 18 19.3 98.96     Cloudy
15:00 Legend Double Dagger 15.6 14.0 90 22 18 19.3 98.91     LegendNANA
16:00 Legend Double Dagger 15.4 14.0 91 23 15 16.1 98.88     LegendNANA
17:00 Legend Double Dagger 14.6 13.7 94 23 13 16.1 98.84     Cloudy
18:00 Legend Double Dagger 14.2 13.7 97 21 15 6.4 98.80     Fog
19:00 Legend Double Dagger 13.8 13.8 100 21 10 0.8 98.78     Fog
20:00 Legend Double Dagger 13.6 13.6 100 21 12 0.8 98.76     Fog
21:00 Legend Double Dagger 13.4 13.4 100 18 13 0.8 98.74     Fog
22:00 Legend Double Dagger 13.6 13.6 100 20 15 4.8 98.69     Fog
23:00 Legend Double Dagger 14.2 14.2 100 18 15 4.8 98.62     Fog

Notes on Data Quality.

Legend

  • E = Estimated
  • M = Missing
  • NA = Not Available
  • ‡ = Partner data that is not subject to review by the National Climate Archives
Date modified: